Vero Beach, FL

11:03 AM EDT on April 25, 2018 (GMT -0400)
Vero Beach Municipal

Weather History for KVRB - April, 2014

Change the Weather History Date:

Friday, April 11, 2014

  Actual Average Record
Temperature  
Mean Temperature 71 °F 70 °F  
Max Temperature 78 °F 80 °F 94 °F (1999)
Min Temperature 63 °F 60 °F 45 °F (1996)
Degree Days  
Heating Degree Days 0 1  
Month to date heating degree days 5 11  
Since 1 July heating degree days 268 451  
Cooling Degree Days 6 6  
Month to date cooling degree days 56 59  
Year to date cooling degree days 384 327  
Growing Degree Days 21 (Base 50)    
Moisture  
Dew Point 65 °F    
Average Humidity 80    
Maximum Humidity 93    
Minimum Humidity 67    
Precipitation  
Precipitation 0.27 in 0.09 in 1.78 in (1957)
Month to date precipitation 0.68 1.09  
Year to date precipitation 9.18 10.38  
Sea Level Pressure  
Sea Level Pressure 30.20 in    
Wind  
Wind Speed 7 mph (East)    
Max Wind Speed 20 mph    
Max Gust Speed 24 mph    
Visibility 8 miles    
Events Rain    
T = Trace of Precipitation, MM = Missing Value Source: NWS Daily Summary

Daily Weather History Graph

Daily Weather History Graph

Search for Another Location

Airport or City:

Astronomy

Apr. 11, 2014 Rise Set
Actual Time 7:01 AM EDT 7:44 PM EDT
Civil Twilight 6:37 AM EDT 8:08 PM EDT
Nautical Twilight 6:09 AM EDT 8:36 PM EDT
Astronomical Twilight 5:40 AM EDT 9:04 PM EDT
Moon 4:39 PM EDT (4/11) 4:37 AM EDT (4/11)
Length of Visible Light 13h 30m
Length of Day
12h 43m
Waxing Gibbous, 87% of the Moon is Illuminated
Apr 11
Waxing Gibbous
Apr 15
Full
Apr 22
Last Quarter
Apr 29
New
May 6
First Quarter

Hourly Weather History & Observations

Time (EDT) Temp. Dew Point Humidity Pressure Visibility Wind Dir Wind Speed Gust Speed Precip Events Conditions
12:53 AM 69.1 °F 59.0 °F 70% 30.26 in 10.0 mi East 6.9 mph - N/A   Clear
1:53 AM 68.0 °F 59.0 °F 73% 30.24 in 10.0 mi NE 3.5 mph - N/A   Mostly Cloudy
2:53 AM 64.9 °F 61.0 °F 87% 30.21 in 10.0 mi Calm Calm - N/A   Overcast
3:53 AM 64.0 °F 61.0 °F 90% 30.20 in 10.0 mi Calm Calm - N/A   Mostly Cloudy
4:53 AM 64.0 °F 63.0 °F 96% 30.19 in 10.0 mi Calm Calm - 0.00 in   Mostly Cloudy
5:53 AM 66.9 °F 63.0 °F 87% 30.19 in 10.0 mi ESE 5.8 mph - N/A   Clear
6:53 AM 68.0 °F 63.0 °F 84% 30.21 in 10.0 mi ESE 5.8 mph - N/A   Clear
7:53 AM 64.9 °F 63.0 °F 93% 30.23 in 10.0 mi Calm Calm - N/A   Scattered Clouds
8:53 AM 73.9 °F 64.9 °F 73% 30.23 in 10.0 mi East 9.2 mph - N/A   Scattered Clouds
9:53 AM 75.9 °F 66.0 °F 71% 30.25 in 10.0 mi ESE 10.4 mph - N/A   Scattered Clouds
10:53 AM 78.1 °F 66.0 °F 66% 30.26 in 10.0 mi East 18.4 mph - N/A   Mostly Cloudy
11:53 AM 75.9 °F 64.0 °F 67% 30.26 in 10.0 mi ESE 12.7 mph - N/A   Mostly Cloudy
12:53 PM 75.0 °F 64.9 °F 71% 30.23 in 10.0 mi East 16.1 mph - N/A   Overcast
1:53 PM 70.0 °F 66.9 °F 90% 30.22 in 2.5 mi East 13.8 mph - 0.01 in Rain Rain
2:06 PM 68.0 °F 66.9 °F 96% 30.22 in 1.8 mi East 15.0 mph - 0.05 in Rain Rain
2:23 PM 69.1 °F 68.0 °F 96% 30.21 in 3.0 mi NE 8.1 mph - 0.10 in Rain Light Rain
2:37 PM 69.1 °F 68.0 °F 96% 30.21 in 2.0 mi NNE 6.9 mph - 0.12 in Rain Rain
2:53 PM 68.0 °F 66.9 °F 96% 30.20 in 2.0 mi NW 5.8 mph - 0.19 in Rain Rain
3:04 PM 69.1 °F 68.0 °F 96% 30.19 in 5.0 mi West 9.2 mph - 0.01 in Rain Light Rain
3:53 PM 69.1 °F 66.9 °F 93% 30.19 in 3.0 mi West 3.5 mph - 0.02 in   Overcast
4:53 PM 71.1 °F 66.0 °F 84% 30.17 in 10.0 mi East 11.5 mph - N/A   Overcast
5:53 PM 71.1 °F 66.0 °F 84% 30.17 in 10.0 mi East 12.7 mph - N/A   Mostly Cloudy
6:46 PM 70.0 °F 66.0 °F 87% 30.17 in 10.0 mi East 6.9 mph - N/A   Overcast
6:53 PM 70.0 °F 66.0 °F 87% 30.17 in 10.0 mi East 6.9 mph - N/A   Overcast
7:53 PM 68.0 °F 66.0 °F 93% 30.18 in 10.0 mi South 5.8 mph - 0.02 in Rain Rain
7:59 PM 69.1 °F 66.9 °F 93% 30.19 in 2.5 mi South 5.8 mph - 0.00 in Rain Rain
8:08 PM 69.1 °F 66.9 °F 93% 30.18 in 10.0 mi East 8.1 mph - 0.00 in   Overcast
8:53 PM 69.1 °F 66.9 °F 93% 30.18 in 9.0 mi East 8.1 mph - 0.02 in   Overcast
9:53 PM 69.1 °F 64.9 °F 87% 30.18 in 10.0 mi East 8.1 mph - 0.01 in   Overcast
10:53 PM 70.0 °F 66.0 °F 87% 30.18 in 10.0 mi East 8.1 mph - N/A   Overcast
11:53 PM 71.1 °F 66.0 °F 84% 30.17 in 10.0 mi East 6.9 mph - N/A   Overcast